Glasgow, MT

8:18 PM MDT on June 22, 2017 (GMT -0600)
Wokal-Glasgow International

Weather History for KGGW - July, 2013

Change the Weather History Date:

Friday, July 5, 2013

  Actual Average Record
Temperature  
Mean Temperature 74 °F 69 °F  
Max Temperature 84 °F 83 °F 108 °F (1937)
Min Temperature 64 °F 55 °F 39 °F (1918)
Degree Days  
Heating Degree Days 0 1  
Month to date heating degree days 0 5  
Since 1 June heating degree days 84 110  
Since 1 July heating degree days 0 5  
Cooling Degree Days 9 5  
Month to date cooling degree days 54 24  
Year to date cooling degree days 112 116  
Since 1 June cooling degree days 103 99  
Growing Degree Days 24 (Base 50)    
Moisture  
Dew Point 61 °F    
Average Humidity 69    
Maximum Humidity 93    
Minimum Humidity 44    
Precipitation  
Precipitation 0.15 in 0.06 in 0.73 in (1899)
Month to date precipitation 0.15 0.32  
Year to date precipitation 11.61 6.47  
Snow  
Snow 0.00 in 0.00 in 0.20 in (1955)
Month to date snowfall 0.0 0.0  
Since 1 June snowfall 0.0 0.0  
Since 1 July snowfall 0.0 0.0  
Snow Depth 0.00 in    
Sea Level Pressure  
Sea Level Pressure 29.70 in    
Wind  
Wind Speed 9 mph (East)    
Max Wind Speed 23 mph    
Max Gust Speed 28 mph    
Visibility 10 miles    
Events Rain , Thunderstorm    
T = Trace of Precipitation, MM = Missing Value Source: NWS Daily Summary

Daily Weather History Graph

Daily Weather History Graph

Search for Another Location

Airport or City:

Trip Planner

Search our weather history database for the weather conditions in past years. The results will help you decide how hot, cold, wet, or windy it might be!

Date:

Astronomy

Jul. 05, 2013 Rise Set
Actual Time 5:13 AM MDT 9:08 PM MDT
Civil Twilight 4:32 AM MDT 9:49 PM MDT
Nautical Twilight 3:35 AM MDT 10:45 PM MDT
Astronomical Twilight 2:05 AM MDT 12:14 AM MDT
Moon 3:19 AM MDT (7/5) 7:01 PM MDT (7/5)
Length of Visible Light 17h 17m
Length of Day
15h 55m
Waning Crescent, 6% of the Moon is Illuminated
Jul 5
Waning Crescent
Jul 8
New
Jul 15
First Quarter
Jul 22
Full
Jul 29
Last Quarter

Hourly Weather History & Observations

Time (MDT) Temp. Heat Index Dew Point Humidity Pressure Visibility Wind Dir Wind Speed Gust Speed Precip Events Conditions
12:53 AM 68.0 °F - 59.0 °F 73% 29.73 in 10.0 mi ESE 11.5 mph - N/A   Clear
1:53 AM 66.0 °F - 60.1 °F 81% 29.73 in 10.0 mi East 11.5 mph - N/A   Clear
2:53 AM 66.0 °F - 59.0 °F 78% 29.72 in 10.0 mi East 10.4 mph - N/A   Clear
3:53 AM 66.0 °F - 57.9 °F 75% 29.69 in 10.0 mi ESE 12.7 mph - N/A   Clear
4:53 AM 64.0 °F - 57.0 °F 78% 29.68 in 10.0 mi ESE 10.4 mph - N/A   Clear
5:53 AM 64.0 °F - 57.0 °F 78% 29.68 in 10.0 mi ESE 11.5 mph - N/A   Clear
6:53 AM 66.9 °F - 59.0 °F 76% 29.68 in 10.0 mi East 10.4 mph - 0.01 in   Mostly Cloudy
7:09 AM 68.0 °F - 57.2 °F 68% 29.74 in 10.0 mi Calm Calm - N/A Thunderstorm Thunderstorm
7:53 AM 64.0 °F - 61.0 °F 90% 29.71 in 4.0 mi East 5.8 mph - 0.06 in Rain , Thunderstorm Thunderstorms and Rain
8:24 AM 64.4 °F - 60.8 °F 88% 29.73 in 10.0 mi East 6.9 mph - 0.05 in   Mostly Cloudy
8:53 AM 69.1 °F - 63.0 °F 81% 29.68 in 10.0 mi ESE 16.1 mph - 0.05 in   Clear
9:53 AM 73.9 °F - 61.0 °F 64% 29.67 in 10.0 mi ESE 15.0 mph - N/A   Clear
10:53 AM 77.0 °F - 62.1 °F 60% 29.70 in 10.0 mi Calm Calm - N/A   Partly Cloudy
11:53 AM 78.1 °F - 63.0 °F 60% 29.70 in 10.0 mi North 3.5 mph - N/A   Mostly Cloudy
12:53 PM 81.0 °F 82.2 °F 63.0 °F 54% 29.70 in 10.0 mi Calm Calm - N/A   Clear
1:53 PM 80.1 °F 81.7 °F 64.0 °F 58% 29.70 in 10.0 mi WSW 3.5 mph - N/A   Clear
2:53 PM 80.1 °F 81.5 °F 63.0 °F 56% 29.70 in 10.0 mi West 8.1 mph - N/A   Clear
3:53 PM 81.0 °F 82.5 °F 64.0 °F 56% 29.68 in 10.0 mi WSW 9.2 mph - N/A   Clear
4:53 PM 84.0 °F 84.4 °F 61.0 °F 46% 29.68 in 10.0 mi WNW 16.1 mph - N/A   Mostly Cloudy
5:53 PM 82.9 °F 83.2 °F 60.1 °F 46% 29.67 in 10.0 mi NW 15.0 mph 20.7 mph N/A   Clear
6:53 PM 77.0 °F - 63.0 °F 62% 29.68 in 10.0 mi NNE 19.6 mph 27.6 mph N/A   Clear
7:53 PM 73.9 °F - 63.0 °F 68% 29.68 in 10.0 mi ENE 11.5 mph - N/A   Clear
8:53 PM 71.1 °F - 63.0 °F 75% 29.70 in 10.0 mi East 8.1 mph - N/A   Clear
9:53 PM 66.9 °F - 64.0 °F 90% 29.72 in 10.0 mi East 6.9 mph - N/A   Clear
10:53 PM 66.0 °F - 64.0 °F 93% 29.73 in 10.0 mi NE 3.5 mph - N/A   Clear
11:53 PM 64.9 °F - 63.0 °F 93% 29.72 in 10.0 mi ENE 3.5 mph - N/A   Scattered Clouds